Regional Weather Roundup
Issued by NWS

Home | Current Version | Previous Version | Text Only | Print | Product List | Glossary On
Versions: 1 2 3 4 5 6 7 8 9 10 11 12 13 14 15 16 17 18 19 20 21 22 23 24 25 26 27 28 29 30 31 32 33 34 35 36 37 38 39 40 41 42 43 44 45 46 47 48 49 50
161
ASUS43 KDTX 301801
RWRMI
MICHIGAN HOURLY REGIONAL WEATHER ROUNDUP
NATIONAL WEATHER SERVICE DETROIT/PONTIAC MI
200 PM EDT SAT JUL 30 2016

NOTE: "FAIR" INDICATES FEW OR NO CLOUDS BELOW 12,000 FEET WITH NO
SIGNIFICANT WEATHER AND/OR OBSTRUCTION TO VISIBILITY.

MIZ047>049-052>055-059>063-066>070-074>076-081>083-301900-
SOUTHEAST LOWER MICHIGAN

CITY           SKY/WX    TMP DP  RH WIND       PRES   REMARKS
ADRIAN         CLOUDY    78  67  68 NE13      29.99R
6HR MIN TEMP:  69; 6HR MAX TEMP:  79; 6HR PCP: TRACE;

ALMA           CLOUDY    73  66  80 NE10G16   30.03S
ANN ARBOR      CLOUDY    71  67  87 NE7       29.99F
BAD AXE        CLOUDY    72  63  73 NE6       30.05F
CARO           CLOUDY    71  64  79 NE5       30.03S
DETROIT CITY   CLOUDY    74  67  78 N7        29.99S
6HR MIN TEMP:  67; 6HR MAX TEMP:  74; 6HR PCP:  0.02;

DETROIT        PTSUNNY   74  65  73 NE10      29.99S
6HR MIN TEMP:  71; 6HR MAX TEMP:  75; 6HR PCP:  0.01;

FLINT          CLOUDY    74  66  76 NE8       30.02S
6HR MIN TEMP:  67; 6HR MAX TEMP:  74; 6HR PCP:  0.07;

GROSSE ILE     HVY RAIN  71  69  92 E7        29.98R
6HR MIN TEMP:  71; 6HR MAX TEMP:  76; 6HR PCP:  0.20;

HILLSDALE      CLOUDY    74  67  77 E3        29.99S
6HR MIN TEMP:  59; 6HR MAX TEMP:  87;

HOWELL         LGT RAIN  69  68  95 NE5       30.01S
6HR MIN TEMP:  63; 6HR MAX TEMP:  69;


CITY           SKY/WX    TMP DP  RH WIND       PRES   REMARKS
JACKSON        CLOUDY    72  69  90 VRB5      30.00S
6HR MIN TEMP:  63; 6HR MAX TEMP:  72; 6HR PCP:  0.73;

LAMBERTVILLE   CLOUDY    75  69  81 NE7       29.98R
6HR MIN TEMP:  70; 6HR MAX TEMP:  78;

LANSING        CLOUDY    70  64  81 NE8       30.02S
6HR MIN TEMP:  64; 6HR MAX TEMP:  71; 6HR PCP:  0.06;

LAPEER         LGT RAIN  70  64  81 E8        30.03R
6HR MIN TEMP:  66; 6HR MAX TEMP:  70;

MASON          CLOUDY    69  64  86 NE8       30.01S
MONROE         MOSUNNY   79  70  74 E7        29.97R
6HR MIN TEMP:  69; 6HR MAX TEMP:  79;

MT. CLEMENS    CLOUDY    74  67  80 N6        29.98R
6HR MIN TEMP:  69; 6HR MAX TEMP:  74; 6HR PCP:  0.01;

PONTIAC        LGT RAIN  69  66  90 NE6       30.00S
6HR MIN TEMP:  64; 6HR MAX TEMP:  70; 6HR PCP:  0.89;

PORT HOPE        N/A     70  61  73 NE13      30.05S
6HR MIN TEMP:  68; 6HR MAX TEMP:  71;

PORT HURON     CLOUDY    75  64  69 N8        30.00F
TRI CITIES     CLOUDY    73  66  78 NE12      30.04S
6HR MIN TEMP:  66; 6HR MAX TEMP:  73; 6HR PCP: TRACE;

MIDLAND        CLOUDY    72  63  74 NE9       30.04S
6HR MIN TEMP:  65; 6HR MAX TEMP:  72;

TROY           LGT RAIN  72  66  81 NE8       30.02F
SAGINAW HB     CLOUDY    72  63  73 NE10      30.02F
$$
MIZ043>046-050>051-056>058-064>065-071>073-077>080-301900-
SOUTHWEST LOWER MICHIGAN

CITY           SKY/WX    TMP DP  RH WIND       PRES   REMARKS
BATTLE CREEK   CLOUDY    68  67  96 NE8       30.01R
6HR MIN TEMP:  62; 6HR MAX TEMP:  68; 6HR PCP:  0.39;

BENTON HARBOR  PTSUNNY   77  65  66 NE5       29.98S
6HR MIN TEMP:  65; 6HR MAX TEMP:  78; 6HR PCP:  0.02;

BIG RAPIDS     CLOUDY    69  65  86 E8G17     30.05R
6HR MIN TEMP:  61; 6HR MAX TEMP:  73;

COLDWATER      CLOUDY    73  69  88 N5        29.99F
6HR MIN TEMP:  64; 6HR MAX TEMP:  73;

FREMONT        CLOUDY    73  66  77 NE9       30.02S
HOLLAND        CLOUDY    73  64  73 NE6       30.01S
6HR MIN TEMP:  65; 6HR MAX TEMP:  74; 6HR PCP: TRACE;

GRAND RAPIDS   RAIN      69  64  84 E7        30.02R
6HR MIN TEMP:  63; 6HR MAX TEMP:  69; 6HR PCP:  0.02;

IONIA          LGT RAIN  67  63  86 NE9       30.02R
6HR MIN TEMP:  62; 6HR MAX TEMP:  67;

KALAMAZOO      CLOUDY    71  65  81 E3        29.99F
6HR MIN TEMP:  63; 6HR MAX TEMP:  72; 6HR PCP:  1.63;

LUDINGTON      CLOUDY    76  59  55 E6        30.02S
6HR MIN TEMP:  65; 6HR MAX TEMP:  78;

MARSHALL       LGT RAIN  69  68  96 CALM      29.99S
6HR MIN TEMP:  64; 6HR MAX TEMP:  69; 6HR PCP:  0.26;

MOUNT PLEASANT CLOUDY    73  64  73 NE10      30.04S
6HR MIN TEMP:  64; 6HR MAX TEMP:  73;

MUSKEGON       CLOUDY    75  64  68 VRB6      30.01S
6HR MIN TEMP:  64; 6HR MAX TEMP:  76; 6HR PCP: TRACE;

SOUTH HAVEN    CLOUDY    74  67  78 E9        29.99S
$$
MIZ016>042-301900-
NORTHERN LOWER MICHIGAN

CITY           SKY/WX    TMP DP  RH WIND       PRES   REMARKS
ALPENA         SUNNY     76  48  37 E14       30.09F
6HR MIN TEMP:  59; 6HR MAX TEMP:  77;

BEAVER ISLAND  SUNNY     77  55  46 E12       30.09S
6HR MIN TEMP:  59; 6HR MAX TEMP:  78;

BELLAIRE       SUNNY     80  48  32 NE5       30.05S
6HR MIN TEMP:  56; 6HR MAX TEMP:  80;

CADILLAC       MOSUNNY   75  58  54 E12       30.06S
CHARLEVOIX     MOSUNNY   78  51  38 NE14      30.09F
FRANKFORT      SUNNY     79  53  39 NE6       30.04F
GAYLORD        SUNNY     77  47  34 E8G17     30.08F
6HR MIN TEMP:  63; 6HR MAX TEMP:  78;

GRAYLING       MOSUNNY   81  49  32 SE9       30.07S
HARBOR SPRINGS MOSUNNY   77  51  40 NE13G20   30.07F
HOUGHTON LAKE  PTSUNNY   77  57  50 SE13      30.07S
6HR MIN TEMP:  58; 6HR MAX TEMP:  78;

MANISTEE       PTSUNNY   78  56  46 NE8       30.02F
OSCODA         PTSUNNY   74  59  60 NE14G21   30.08R
6HR MIN TEMP:  69; 6HR MAX TEMP:  75;

PELLSTON       MOSUNNY   78  49  35 E14       30.09S
6HR MIN TEMP:  56; 6HR MAX TEMP:  78;

ROGERS CITY    SUNNY     74  49  42 E14       30.12S
TRAVERSE CITY  MOSUNNY   83  49  30 NE14G20   30.02F
6HR MIN TEMP:  61; 6HR MAX TEMP:  83;

$$
MIZ007>008-015-301900-
EASTERN UPPER MICHIGAN

CITY           SKY/WX    TMP DP  RH WIND       PRES   REMARKS
KINROSS        MOSUNNY   77  52  41 VRB5      30.10S
6HR MIN TEMP:  62; 6HR MAX TEMP:  78;

MACKINAC ISLAN SUNNY     73  52  48 E10       30.10S
6HR MIN TEMP:  65; 6HR MAX TEMP:  73;

S. S. MARIE    MOSUNNY   79  53  40 VRB6      30.09S
6HR MIN TEMP:  60; 6HR MAX TEMP:  79;

$$
MIZ004>006-011>014-085-301900-
CENTRAL UPPER MICHIGAN

CITY           SKY/WX    TMP DP  RH WIND       PRES   REMARKS
MANISTIQUE     MOSUNNY   76  58  53 SE9       30.09S
6HR MIN TEMP:  58; 6HR MAX TEMP:  78;

ESCANABA       SUNNY     75  57  53 S8        30.08F
MENOMINEE      SUNNY    N/A N/A N/A E10       30.09S
SAWYER-GWINN   MOSUNNY   73  48  40 SE5       30.11S
$$
MIZ001>003-009>011-084-301900-
WESTERN UPPER MICHIGAN

CITY           SKY/WX    TMP DP  RH WIND       PRES   REMARKS
IRON MOUNTAIN  MOSUNNY   77  49  37 VRB5      30.08F
6HR MIN TEMP:  56; 6HR MAX TEMP:  78;

HOUGHTON       SUNNY     75  56  51 VRB6      30.09S
6HR MIN TEMP:  61; 6HR MAX TEMP:  76;

COPPER HARBOR    N/A     75  53  46 VRB3      30.08S
6HR MIN TEMP:  60; 6HR MAX TEMP:  76;

IRONWOOD       CLOUDY    75  55  50 S6        30.05S
6HR MIN TEMP:  63; 6HR MAX TEMP:  77;

$$

ABBREVIATIONS USED IN REMARKS
   TC - TEMPERATURE IN CELSIUS
  WCI - WIND CHILL INDEX
   HX - HEAT INDEX
  VSB - VISIBILITY





USA.gov is the U.S. government's official web portal to all federal, state and local government web resources and services.